www.pogodaiklimat.ru

Погода и климат >> Архив погоды >> Украина >> Белгород-Днестровский


ПОГОДА в Белгород-Днестровском

  • Прогноз погоды в Белгород-Днестровском
  • Монитор погоды в Белгород-Днестровском

АРХИВ ПОГОДЫ в Белгород-Днестровском

Время (UTC), дата Ветер
(напр.,м/с)
 
Видим.   Явления Облачность Т
(С)
Тd
(С)
f
(%)
Тe
(С)
Тes
(С)
Комфортность P
(гПа)
Po
(гПа)
Тmin
(С)
Tmax
(С)
R
(мм)
R24
(мм)
S
(см)
15 16.07 СЗ 3 20 км 9/4 600 м
[Sc diur, vesp Ac cuf Ci ing]
+26.6 +9.7 35 +27 +28 жарко 1008.1 1008.0
18 16.07 штиль 0 20 км 9/3 600 м
[Sc diur, vesp Ac cuf Ci]
+24.2 +12.6 48 +26 +26 жарко 1008.6 1008.5 +27.4
21 16.07 СЗ 1 10 км 4/0
[Ci fib]
+21.8 +14.5 63 +25 +25 комфорт 1009.2 1009.1
00 17.07 СЗ 2 10 км 4/0
[Ci fib]
+20.4 +13.4 64 +23 +23 комфорт 1009.2 1008.2
03 17.07 СЗ 4 20 км 4/0
[Ci fib]
+18.9 +14.2 74 +20 +20 1008.9 1008.8
06 17.07 СЗ 4 20 км 5/0
[Cs]
+20.4 +15.0 71 +23 +28 комфорт 1009.2 1009.1 +18.7
12 17.07 СЗ 3 20 км 3/3 600 м
[Cu med, cong]
+27.2 +12.4 40 +29 +37 жарко 1008.0 1007.0
15 17.07 Ю 4 20 км 3/3 600 м
[Cu med, cong Ci fib]
+27.3 +12.1 39 +29 +30 жарко 1007.1 1007.0
18 17.07 Ю 2 20 км 4/3 600 м
[Sc diur, vesp Ci fib]
+24.2 +11.2 44 +26 +26 жарко 1007.6 1007.5 +28.1
21 17.07 СЗ 2 10 км 8/8 600 м
[Sc]
+23.2 +14.6 58 +27 +27 душно 1008.7 1008.6
00 18.07 СЗ 5 10 км 10/10 600 м
[Sc]
+22.3 +14.1 60 +26 +26 жарко 1009.2 1008.2
03 18.07 С 4 10 км слаб. ливневой дождь 10/8 600 м
[Cb cap Ac As]
+20.2 +14.4 69 +23 +23 комфорт 1010.2 1010.1
06 18.07 С 5 20 км {ливн. осадки} 8/6 600 м
[Sc diur, vesp Ac cuf Cc]
+21.5 +12.9 58 +24 +25 комфорт 1011.4 1011.3 +19.8 0.1
09 18.07 СЗ 5 20 км 6/0
[Cc]
+23.4 +10.6 44 +25 +33 комфорт 1012.0 1011.9
12 18.07 СЗ 6 20 км 3/3 600 м
[Cu hum]
+25.7 +10.0 37 +26 +31 жарко 1012.0 1011.0
15 18.07 С 5 20 км 6/4 600 м
[Sc diur, vesp Ci fib]
+25.7 +12.8 45 +28 +29 жарко 1012.0 1011.9
18 18.07 СЗ 3 20 км 4/0
[Ci fib]
+24.4 +11.1 43 +26 +26 жарко 1013.1 1013.0 +26.2
21 18.07 З 1 10 км ясно +21.1 +14.0 64 +24 +24 комфорт 1014.7 1014.6
00 19.07 штиль 0 10 км ясно +19.3 +13.3 68 +20 +20 1015.3 1014.3
03 19.07 штиль 0 20 км 3/3 600 м
[Sc]
+19.8 +12.3 62 +21 +21 комфорт 1016.0 1015.9
06 19.07 СЗ 4 20 км 9/5 600 м
[Sc Ac cast Ci fib]
+21.3 +13.3 60 +24 +25 комфорт 1017.0 1016.9 +18.6
09 19.07 ЮВ 3 20 км 6/3 600 м
[Cu hum Ac cast Ci fib]
+25.4 +14.5 51 +28 +36 жарко 1017.2 1017.1
12 19.07 Ю 3 20 км 10/6 600 м
[Cu Sc Ac cast Ci fib]
+24.7 +13.6 50 +27 +29 жарко 1017.2 1016.2
15 19.07 Ю 4 20 км 10/3 600 м
[Sc Ac cast Ci fib]
+26.3 +13.0 44 +28 +29 жарко 1016.9 1016.8
18 19.07 Ю 3 20 км 10/3 600 м
[Sc Ac cast Ci fib]
+24.0 +16.4 62 +27 +27 жарко 1017.2 1017.1 +26.9
21 19.07 штиль 0 10 км 8/3 600 м
[Sc Ac cast Ci fib]
+20.8 +16.9 78 +24 +24 комфорт 1018.3 1018.2
00 20.07 штиль 0 10 км 6/3 600 м
[Sc Ci fib]
+20.5 +17.6 83 +24 +24 комфорт 1018.5 1017.4
03 20.07 штиль 0 20 км 3/3 600 м
[Sc]
+19.3 +16.6 84 +21 +21 комфорт 1018.6 1018.5
06 20.07 В 1 20 км ясно +23.6 +18.2 72 +28 +37 душно 1019.3 1019.2 +18.0
09 20.07 ЮВ 4 20 км 4/4 600 м
[Cu med, cong]
+26.2 +19.9 68 +32 +39 очень
душно
1019.6 1019.5
12 20.07 ЮВ 7 20 км 4/4 600 м
[Cu med, cong]
+26.4 +18.2 61 +31 +33 душно 1018.9 1017.9
15 20.07 Ю 6 20 км 4/4 600 м
[Cu med, cong]
+27.3 +15.1 47 +30 +31 душно 1018.2 1018.1
18 20.07 СЗ 4 20 км 8/8 600 м
[Cb cap]
+24.9 +16.6 60 +28 +28 жарко 1018.4 1018.3 +27.9
21 20.07 ЮЗ 2 10 км в посл. час ливневой дождь {гроза} 10/10 600 м
[Cb cap]
+22.0 +17.3 75 +26 +26 душно 1019.2 1019.1
00 21.07 Ю 1 10 км {гроза, ливн. осадки} 10/10 600 м
[Cb cap]
+21.9 +17.2 75 +26 +26 душно 1018.7 1017.7
06 21.07 ЮВ 1 20 км 4/3 600 м
[Cu Sc Ac cast Ci fib]
+24.3 +18.3 69 +29 +34 душно 1019.0 1018.9 +20.7 1
12 21.07 Ю 3 20 км в посл. час гроза {ливн. осадки} 8/5 600 м
[Cb cap Ac cuf Ci ing]
+25.6 +19.4 69 +31 +35 очень
душно
1018.4 1017.4
18 21.07 Ю 2 20 км 6/1 600 м
[Sc diur, vesp Ci fib]
+25.3 +18.2 65 +30 +30 душно 1017.4 1017.3 +29.4 4
00 22.07 СЗ 1 10 км 3/0
[Ci fib]
+22.8 +17.7 73 +28 +28 душно 1017.8 1016.8
06 22.07 штиль 0 20 км ясно +24.4 +18.6 70 +29 +39 душно 1017.4 1017.3 +20.6
12 22.07 ЮВ 2 20 км 10/5 600 м
[Cb cap Ac cast Cc]
+30.5 +18.3 48 +35 +39 очень
душно
1016.1 1015.1
18 22.07 З 1 20 км {гроза, ливн. осадки} 10/6 600 м
[Cb cap Ac cast Cc]
+27.1 +17.6 56 +31 +31 душно 1015.5 1015.4 +32.5 0.4
00 23.07 СЗ 4 10 км 8/4 600 м
[Sc Ac cast Ci fib]
+23.4 +18.1 72 +29 +29 душно 1015.3 1014.3

 

Местоположение метеостанции Белгород-Днестровский (Одесская область, Украина): широта 46.18 долгота 30.37 высота над уровнем моря 1 м.

В архиве по умолчанию представлена погода в Белгород-Днестровском за последнюю неделю. Архивные данные за месяц целиком и за предыдущие месяцы, начиная с января 2011 года, Вы можете получить, выбрав интересующий диапазон дат из раскрывающегося списка и нажав кнопку "Ввод!".


*Определитесь, кто Вы:
робот инопланетянин человек

Внимание! Время в таблицах - всемирное. Для получения местного времени необходимо прибавить поправку, которая равна 2 ч.

Смотрите также архив погоды в соседних городах и на ближайших метеорологических станциях:

Погода в Ильичевске (Одесская область, Украина) (35 км)
Погода в Одессе (Одесская область, Украина) (41 км)
Погода в Сарате (Одесская область, Украина) (57 км)
Погода в Вилково (Одесская область, Украина) (73 км)
Погода в Заставе (Одесская область, Украина) (75 км)
Погода в Раздельной (Одесская область, Украина) (78 км)
Погода в Штефан Водэ (Молдова) (78 км)
Погода в Сербке (Одесская область, Украина) (98 км)
Погода в Тирасполе (Молдова) (99 км)
Погода в Очакове (Николаевская область, Украина) (103 км)

Пояснения к столбцам:

Ветер - указаны скорость ветра в м/с - средняя за 10 мин, порывы в срок и между сроками (в фигурных скобках) и направление, откуда дует ветер: С - северный, СВ - северо-восточный, В - восточный, ЮВ - юго-восточный, Ю - южный, ЮЗ - юго-западный, З - западный, СЗ - северо-западный.
Видимость - горизонтальная дальность видимости в метрах или километрах. При видимости от 1 до 10 км при отсутствии осадков обычно наблюдается дымка, при ухудшении видимости до 1 км и менее - туман. В сухую погоду видимость может ухудшаться дымом, пылью или мглою.
Явления - указаны атмосферные явления, наблюдавшиеся в срок или в последний час перед сроком; фигурными скобками обозначены явления, наблюдавшиеся между сроками (за 1-3 часа до срока); квадратными скобками обозначены град или гололедные отложения с указанием их диаметра в мм.
Облачность - указаны через наклонную черту общая и нижняя облачность в баллах и высота нижней границы облаков в метрах; квадратными скобками обозначены формы облаков: Ci - перистые, Cs - перисто-слоистые, Cc - перисто-кучевые, Ac - высококучевые, As - высокослоистые, Sc - слоисто-кучевые, Ns - слоисто-дождевые, Cu - кучевые, Cb - кучево-дождевые. Подробнее классификацию облаков см. в Атласе облаков (PDF).
T - Температура воздуха - температура, измеренная на высоте 2 м над землей.
Td - Температура точки росы - температура, при понижении до которой содержащийся в воздухе водяной пар достигнет насыщения.
f - Относительная влажность воздуха - влажноcть воздуха, измеренная на высоте 2 м над землей.
Te - Эффективная температура - температура, которую ощущает одетый по сезону человек в тени. Характеристика душности погоды. При расчете учитывается влияние влажности воздуха и скорости ветра на теплоощущения человека.
Tes - Эффективная температура на солнце - температура, которую ощущает человек, с поправкой на солнечный нагрев. Характеристика знойности погоды. Зависит от высоты солнца над горизонтом, облачности и скорости ветра. Ночью, в пасмурную погоду, а также при ветре 12 м/с и более поправка равна нулю.
P - Атмосферное давление - приведенное к уровню моря атмосферное давление.
Po - Атмосферное давление - измеренное на уровне метеостанции атмосферное давление.
Tmin - Минимальная температура - минимум температуры воздуха на высоте 2 м над землей.
Tmax - Максимальная температура - максимум температуры воздуха на высоте 2 м над землей.
R - Количество осадков - Количество выпавших осадков за период времени, мм. При наведении курсора мыши на число - период времени, за который выпало указанное количество осадков.
R24 - Количество осадков - Количество выпавших осадков за 24 часа, мм.
S - Снежный покров - Высота снежного покрова, см. При наведении курсора мыши на число - состояние снежного покрова и степень покрытия местности в баллах.